Stündliche Wetter Warwick

Heute, 24 Oktober, Samstag

Zeit Temperatur Niederschläge Wind Luftdruck Luftfeuchtigkeit
00:00 +6°C° 0 mm 4 m/S 750 mmHg 85%
01:00 +6°C° 0 mm 5 m/S 750 mmHg 83%
02:00 +6°C° 0 mm 5 m/S 749 mmHg 81%
03:00 +5°C° 0 mm 6 m/S 749 mmHg 78%
04:00 +7°C° 0 mm 6 m/S 748 mmHg 80%
05:00 +8°C° 0 mm 6 m/S 747 mmHg 81%
06:00 +8°C° 0 mm 6 m/S 746 mmHg 83%
07:00 +9°C° 0 mm 7 m/S 746 mmHg 83%
08:00 +10°C° 0 mm 8 m/S 745 mmHg 83%
09:00 +11°C° 0 mm 8 m/S 745 mmHg 84%
10:00 +12°C° 0.1 mm 9 m/S 744 mmHg 84%
11:00 +13°C° 0.1 mm 9 m/S 743 mmHg 84%
12:00 +13°C° 0.1 mm 9 m/S 743 mmHg 84%
13:00 +13°C° 0.4 mm 9 m/S 742 mmHg 84%
14:00 +13°C° 0.4 mm 8 m/S 742 mmHg 83%
15:00 +12°C° 0.4 mm 8 m/S 741 mmHg 83%
16:00 +11°C° 1.7 mm 6 m/S 741 mmHg 85%
17:00 +10°C° 1.7 mm 5 m/S 740 mmHg 88%
18:00 +10°C° 1.7 mm 3 m/S 740 mmHg 90%
19:00 +10°C° 1 mm 2 m/S 740 mmHg 91%
20:00 +10°C° 1 mm 2 m/S 739 mmHg 93%
21:00 +10°C° 1 mm 1 m/S 739 mmHg 95%
22:00 +9°C° 3.6 mm 2 m/S 739 mmHg 93%
23:00 +7°C° 3.6 mm 4 m/S 739 mmHg 92%

Morgen, 25 Oktober, Sonntag

Zeit Temperatur Niederschläge Wind Luftdruck Luftfeuchtigkeit
00:00 +6°C° 3.6 mm 5 m/S 739 mmHg 91%
01:00 +6°C° 0.3 mm 5 m/S 739 mmHg 90%
02:00 +7°C° 0.3 mm 5 m/S 740 mmHg 90%
03:00 +7°C° 0.3 mm 5 m/S 740 mmHg 90%
04:00 +7°C° 0 mm 5 m/S 740 mmHg 89%
05:00 +6°C° 0 mm 5 m/S 740 mmHg 88%
06:00 +5°C° 0 mm 6 m/S 740 mmHg 87%
07:00 +7°C° 0 mm 6 m/S 740 mmHg 85%
08:00 +7°C° 0 mm 6 m/S 740 mmHg 83%
09:00 +8°C° 0 mm 7 m/S 740 mmHg 80%
10:00 +9°C° 0 mm 7 m/S 740 mmHg 78%
11:00 +10°C° 0 mm 7 m/S 740 mmHg 75%
12:00 +11°C° 0 mm 7 m/S 740 mmHg 72%
13:00 +10°C° 0.3 mm 7 m/S 740 mmHg 73%
14:00 +10°C° 0.3 mm 6 m/S 740 mmHg 74%
15:00 +10°C° 0.3 mm 6 m/S 740 mmHg 75%
16:00 +9°C° 0.3 mm 5 m/S 740 mmHg 79%
17:00 +8°C° 0.3 mm 5 m/S 740 mmHg 82%
18:00 +7°C° 0.3 mm 4 m/S 740 mmHg 86%
19:00 +7°C° 0 mm 4 m/S 740 mmHg 87%
20:00 +6°C° 0 mm 4 m/S 740 mmHg 87%
21:00 +6°C° 0 mm 4 m/S 741 mmHg 87%
22:00 +6°C° 0 mm 5 m/S 741 mmHg 87%
23:00 +6°C° 0 mm 5 m/S 741 mmHg 87%

übermorgen, 26 Oktober, Montag

Zeit Temperatur Niederschläge Wind Luftdruck Luftfeuchtigkeit
00:00 +5°C° 0 mm 6 m/S 741 mmHg 87%
01:00 +5°C° 0 mm 6 m/S 740 mmHg 87%
02:00 +5°C° 0 mm 6 m/S 740 mmHg 87%
03:00 +5°C° 0 mm 6 m/S 740 mmHg 86%
04:00 +5°C° 0 mm 6 m/S 740 mmHg 87%
05:00 +5°C° 0 mm 6 m/S 740 mmHg 87%
06:00 +5°C° 0 mm 6 m/S 740 mmHg 88%
07:00 +6°C° 0.3 mm 7 m/S 739 mmHg 88%
08:00 +6°C° 0.3 mm 7 m/S 739 mmHg 87%
09:00 +7°C° 0.3 mm 8 m/S 739 mmHg 87%
10:00 +9°C° 0.6 mm 7 m/S 739 mmHg 83%
11:00 +10°C° 0.6 mm 7 m/S 739 mmHg 79%
12:00 +11°C° 0.6 mm 7 m/S 740 mmHg 74%
13:00 +10°C° 0.3 mm 7 m/S 740 mmHg 74%
14:00 +10°C° 0.3 mm 6 m/S 740 mmHg 74%
15:00 +10°C° 0.3 mm 6 m/S 740 mmHg 74%
16:00 +9°C° 0 mm 5 m/S 741 mmHg 77%
17:00 +8°C° 0 mm 5 m/S 741 mmHg 80%
18:00 +7°C° 0 mm 5 m/S 742 mmHg 84%
19:00 +7°C° 0 mm 4 m/S 742 mmHg 85%
20:00 +7°C° 0 mm 4 m/S 742 mmHg 87%
21:00 +6°C° 0 mm 4 m/S 743 mmHg 88%
22:00 +6°C° 0 mm 4 m/S 743 mmHg 89%
23:00 +6°C° 0 mm 4 m/S 743 mmHg 90%

, 27 Oktober, Dienstag

Zeit Temperatur Niederschläge Wind Luftdruck Luftfeuchtigkeit
00:00 +5°C° 0 mm 4 m/S 743 mmHg 90%
01:00 +5°C° 0 mm 4 m/S 743 mmHg 91%
02:00 +5°C° 0 mm 4 m/S 743 mmHg 91%
03:00 +5°C° 0 mm 4 m/S 743 mmHg 91%
04:00 +5°C° 0 mm 4 m/S 743 mmHg 91%
05:00 +5°C° 0 mm 4 m/S 743 mmHg 90%
06:00 +4°C° 0 mm 3 m/S 743 mmHg 90%
07:00 +5°C° 0 mm 4 m/S 743 mmHg 88%
08:00 +6°C° 0 mm 4 m/S 742 mmHg 86%
09:00 +7°C° 0 mm 5 m/S 742 mmHg 84%
10:00 +8°C° 0.3 mm 6 m/S 741 mmHg 87%
11:00 +8°C° 0.3 mm 6 m/S 740 mmHg 89%
12:00 +9°C° 0.3 mm 7 m/S 739 mmHg 92%
13:00 +9°C° 0.9 mm 8 m/S 739 mmHg 91%
14:00 +10°C° 0.9 mm 8 m/S 738 mmHg 91%
15:00 +10°C° 0.9 mm 9 m/S 738 mmHg 91%
16:00 +9°C° 0.2 mm 8 m/S 738 mmHg 87%
17:00 +8°C° 0.2 mm 7 m/S 738 mmHg 83%
18:00 +7°C° 0.2 mm 6 m/S 739 mmHg 79%
19:00 +5°C° 0 mm 6 m/S 739 mmHg 81%
20:00 +6°C° 0 mm 5 m/S 740 mmHg 82%
21:00 +6°C° 0 mm 5 m/S 740 mmHg 83%
22:00 +5°C° 0 mm 6 m/S 740 mmHg 84%
23:00 +5°C° 0 mm 6 m/S 740 mmHg 84%

27 Oktober, Dienstag

Zeit Temperatur Niederschläge Wind Luftdruck Luftfeuchtigkeit
00:00 +5°C° 0 mm 4 m/S 743 mmHg 90%
01:00 +5°C° 0 mm 4 m/S 743 mmHg 91%
02:00 +5°C° 0 mm 4 m/S 743 mmHg 91%
03:00 +5°C° 0 mm 4 m/S 743 mmHg 91%
04:00 +5°C° 0 mm 4 m/S 743 mmHg 91%
05:00 +5°C° 0 mm 4 m/S 743 mmHg 90%
06:00 +4°C° 0 mm 3 m/S 743 mmHg 90%
07:00 +5°C° 0 mm 4 m/S 743 mmHg 88%
08:00 +6°C° 0 mm 4 m/S 742 mmHg 86%
09:00 +7°C° 0 mm 5 m/S 742 mmHg 84%
10:00 +8°C° 0.3 mm 6 m/S 741 mmHg 87%
11:00 +8°C° 0.3 mm 6 m/S 740 mmHg 89%
12:00 +9°C° 0.3 mm 7 m/S 739 mmHg 92%
13:00 +9°C° 0.9 mm 8 m/S 739 mmHg 91%
14:00 +10°C° 0.9 mm 8 m/S 738 mmHg 91%
15:00 +10°C° 0.9 mm 9 m/S 738 mmHg 91%
16:00 +9°C° 0.2 mm 8 m/S 738 mmHg 87%
17:00 +8°C° 0.2 mm 7 m/S 738 mmHg 83%
18:00 +7°C° 0.2 mm 6 m/S 739 mmHg 79%
19:00 +5°C° 0 mm 6 m/S 739 mmHg 81%
20:00 +6°C° 0 mm 5 m/S 740 mmHg 82%
21:00 +6°C° 0 mm 5 m/S 740 mmHg 83%
22:00 +5°C° 0 mm 6 m/S 740 mmHg 84%
23:00 +5°C° 0 mm 6 m/S 740 mmHg 84%

28 Oktober, Mittwoch

Zeit Temperatur Niederschläge Wind Luftdruck Luftfeuchtigkeit
00:00 +5°C° 0 mm 6 m/S 740 mmHg 85%
01:00 +5°C° 0 mm 6 m/S 740 mmHg 85%
02:00 +5°C° 0 mm 6 m/S 739 mmHg 84%
03:00 +5°C° 0 mm 6 m/S 739 mmHg 84%
04:00 +6°C° 0.1 mm 7 m/S 738 mmHg 84%
05:00 +6°C° 0.1 mm 7 m/S 738 mmHg 84%
06:00 +6°C° 0.1 mm 7 m/S 738 mmHg 83%
07:00 +6°C° 0.1 mm 7 m/S 738 mmHg 84%
08:00 +7°C° 0.1 mm 8 m/S 738 mmHg 84%
09:00 +7°C° 0.1 mm 8 m/S 737 mmHg 84%
10:00 +7°C° 0.3 mm 9 m/S 737 mmHg 82%
11:00 +8°C° 0.3 mm 9 m/S 738 mmHg 80%
12:00 +8°C° 0.3 mm 10 m/S 738 mmHg 78%
13:00 +8°C° 0.6 mm 10 m/S 737 mmHg 79%
14:00 +8°C° 0.6 mm 10 m/S 737 mmHg 81%
15:00 +7°C° 0.6 mm 10 m/S 737 mmHg 82%
16:00 +7°C° 0.5 mm 10 m/S 737 mmHg 82%
17:00 +8°C° 0.5 mm 11 m/S 737 mmHg 82%
18:00 +8°C° 0.5 mm 11 m/S 737 mmHg 82%
19:00 +8°C° 0.1 mm 11 m/S 738 mmHg 80%
20:00 +8°C° 0.1 mm 10 m/S 738 mmHg 79%
21:00 +8°C° 0.1 mm 10 m/S 739 mmHg 77%
22:00 +8°C° 0.1 mm 10 m/S 740 mmHg 76%
23:00 +8°C° 0.1 mm 10 m/S 741 mmHg 75%

29 Oktober, Donnerstag

Zeit Temperatur Niederschläge Wind Luftdruck Luftfeuchtigkeit
00:00 +8°C° 0.1 mm 10 m/S 742 mmHg 74%
01:00 +7°C° 0 mm 9 m/S 742 mmHg 76%
02:00 +7°C° 0 mm 9 m/S 743 mmHg 78%
03:00 +7°C° 0 mm 8 m/S 744 mmHg 80%
04:00 +7°C° 0 mm 8 m/S 744 mmHg 81%
05:00 +7°C° 0 mm 8 m/S 744 mmHg 81%
06:00 +8°C° 0 mm 7 m/S 745 mmHg 81%
07:00 +9°C° 0.2 mm 8 m/S 744 mmHg 83%
08:00 +10°C° 0.2 mm 9 m/S 744 mmHg 86%
09:00 +11°C° 0.2 mm 11 m/S 743 mmHg 88%
10:00 +11°C° 0.4 mm 10 m/S 743 mmHg 89%
11:00 +12°C° 0.4 mm 10 m/S 743 mmHg 90%
12:00 +12°C° 0.4 mm 10 m/S 743 mmHg 90%
13:00 +13°C° 0.8 mm 10 m/S 743 mmHg 90%
14:00 +13°C° 0.8 mm 10 m/S 743 mmHg 89%
15:00 +13°C° 0.8 mm 10 m/S 743 mmHg 89%
16:00 +13°C° 0.6 mm 9 m/S 743 mmHg 87%
17:00 +13°C° 0.6 mm 9 m/S 744 mmHg 85%
18:00 +12°C° 0.6 mm 8 m/S 745 mmHg 84%
19:00 +12°C° 0 mm 8 m/S 745 mmHg 84%
20:00 +11°C° 0 mm 7 m/S 746 mmHg 84%
21:00 +11°C° 0 mm 7 m/S 746 mmHg 84%
22:00 +10°C° 0.4 mm 6 m/S 747 mmHg 87%
23:00 +10°C° 0.4 mm 6 m/S 747 mmHg 89%
Mehr zeigen

Wir brauchen deine Erlaubnis

Meteoprog und unser Service Anbieter werden persönliche Daten aufbewahren, so wie Cookies, Geräte Bezeichnung oder ähnliche Technologien von deinem Gerät und Prozess, so wie Persönliche Daten Inhalte und Werbungen, genauso wie social Media und den Verkehr zu analysieren.

  • Aufbewahrung und/oder Zugang zu deiner Geräte Informationen.

    Cookies, Geräte Bezeichnung oder andere Informationen, können aufbewahrt oder Zugang zu deinem Gerät erhalten, für den Grund, der oben angegeben wird.

  • Personalisierte Werbung und Inhalte, Messungen, Einblick in das Publikum und Produkt Entwicklung.

    Werbungen und Inhalte können personalisiert werden, basierend auf ein Profil. Mehr Daten können besser personalisierte Werbungen und Inhalte hinzufügen. Werbung und Inhalte können gezeigt und gemessen werden. Einblicke über das Publikum, welche die Werbung gesehen haben und den Inhalt, können abgeleitet werden. So wie Daten können genutzt werden, um es zu verbessern oder die Benutzer Erfahrung zu verbessern das System und die Software.

Wenn du “Ich stimme zu” klickst, erlaubst du uns, die Cookies zu benutzen die Geräte Bezeichnung, den Web oder ähnliche Technologien zu benutzen. Deine Settings, können in deinem Gerät bei deinem Browser geändert werden.

Für den bestimmten Zweck, berechtigten Interessen beruhen darauf, mehr als auf den Inhalt. Du kannst mehr darüber in unseren Privaten und Cookie Politik lesen.